SDM1230 UUWW-ULLI

Flight info

Callsign SDM1230
Flight time N/A
Altitude 38000
Route SUNUN3W SUNUN M869 RAVKA N50 NUDKO T561 ODATI T875 GENPA GENPA1A
Aircraft A320/M-SDE3FGHIRWY/LB1

Departure

Time 2026-05-06 17:19
Airport Vnukovo International Airport (UUWW)

Arrival

Time N/A
Airport Pulkovo Airport (ULLI)
Time Latitude Longitude Altitude Speed Heading
2026-05-06 16:53 55.60230 37.28435 676 ft 0 kts 315°
2026-05-06 17:10 55.60222 37.28448 678 ft 4 kts 312°
2026-05-06 17:10 55.60206 37.28485 680 ft 4 kts 302°
2026-05-06 17:10 55.60193 37.28527 678 ft 4 kts 289°
2026-05-06 17:10 55.60187 37.28573 676 ft 4 kts 269°
2026-05-06 17:11 55.60192 37.28616 678 ft 3 kts 230°
2026-05-06 17:11 55.60194 37.28621 678 ft 0 kts 226°
2026-05-06 17:13 55.60188 37.28609 677 ft 7 kts 226°
2026-05-06 17:13 55.60138 37.28516 677 ft 10 kts 227°
2026-05-06 17:13 55.60086 37.28343 679 ft 21 kts 259°
2026-05-06 17:14 55.60073 37.28141 680 ft 16 kts 264°
2026-05-06 17:14 55.60105 37.27967 678 ft 13 kts 296°
2026-05-06 17:14 55.60079 37.27827 680 ft 12 kts 227°
2026-05-06 17:14 55.60018 37.27734 680 ft 11 kts 205°
2026-05-06 17:15 55.59968 37.27650 676 ft 10 kts 229°
2026-05-06 17:15 55.59894 37.27487 678 ft 24 kts 225°
2026-05-06 17:15 55.59773 37.27263 673 ft 26 kts 226°
2026-05-06 17:15 55.59643 37.27021 668 ft 29 kts 226°
2026-05-06 17:16 55.59535 37.26793 668 ft 19 kts 240°
2026-05-06 17:16 55.59501 37.26657 667 ft 0 kts 248°
2026-05-06 17:16 55.59496 37.26636 668 ft 10 kts 248°
2026-05-06 17:17 55.59453 37.26448 669 ft 16 kts 248°
2026-05-06 17:17 55.59448 37.26423 668 ft 0 kts 248°
2026-05-06 17:17 55.59440 37.26365 668 ft 6 kts 298°
2026-05-06 17:17 55.59449 37.26368 668 ft 0 kts 24°
2026-05-06 17:18 55.59467 37.26383 669 ft 15 kts 24°
2026-05-06 17:18 55.59818 37.26652 688 ft 89 kts 23°
2026-05-06 17:18 55.60582 37.27232 659 ft 151 kts 23°
2026-05-06 17:18 55.61647 37.28039 1191 ft 173 kts 22°
2026-05-06 17:19 55.62789 37.28894 2039 ft 183 kts 22°
2026-05-06 17:19 55.64006 37.29822 2457 ft 201 kts 23°
2026-05-06 17:19 55.65348 37.30857 2929 ft 215 kts 23°
2026-05-06 17:19 55.66641 37.32127 3691 ft 218 kts 45°
2026-05-06 17:20 55.67190 37.33642 4187 ft 222 kts 72°
2026-05-06 17:20 55.67214 37.36435 4745 ft 235 kts 105°
2026-05-06 17:20 55.66403 37.40048 5805 ft 241 kts 119°
2026-05-06 17:20 55.65734 37.41651 6326 ft 243 kts 137°
2026-05-06 17:21 55.64317 37.43396 6920 ft 257 kts 156°
2026-05-06 17:21 55.62634 37.44653 7586 ft 267 kts 156°
2026-05-06 17:21 55.60935 37.46033 8407 ft 271 kts 155°
2026-05-06 17:21 55.59193 37.47382 9222 ft 275 kts 166°
2026-05-06 17:22 55.57298 37.47483 9986 ft 278 kts 194°
2026-05-06 17:22 55.55554 37.46013 10761 ft 281 kts 220°
2026-05-06 17:22 55.54142 37.43620 11541 ft 283 kts 225°
2026-05-06 17:22 55.52730 37.41175 12312 ft 286 kts 225°
2026-05-06 17:23 55.51286 37.38707 13060 ft 289 kts 224°
2026-05-06 17:23 55.49977 37.36004 13758 ft 293 kts 243°
2026-05-06 17:23 55.49435 37.32555 14436 ft 296 kts 269°
2026-05-06 17:23 55.49756 37.28952 14954 ft 305 kts 292°
2026-05-06 17:24 55.50920 37.25847 15508 ft 312 kts 316°
2026-05-06 17:24 55.52602 37.23301 16154 ft 316 kts 320°
2026-05-06 17:24 55.54286 37.20773 16805 ft 319 kts 319°
2026-05-06 17:24 55.55869 37.17998 17437 ft 323 kts 314°
2026-05-06 17:25 55.57413 37.15167 18054 ft 326 kts 314°
2026-05-06 17:25 55.58993 37.12274 18668 ft 329 kts 314°
2026-05-06 17:25 55.60607 37.09319 19271 ft 332 kts 314°
2026-05-06 17:25 55.62221 37.06363 19849 ft 335 kts 314°
2026-05-06 17:26 55.63930 37.03551 20407 ft 338 kts 323°
2026-05-06 17:26 55.65952 37.01378 20950 ft 342 kts 335°
2026-05-06 17:26 55.68158 36.99760 21484 ft 344 kts 338°
2026-05-06 17:26 55.70354 36.98165 22015 ft 347 kts 337°
2026-05-06 17:27 55.72598 36.96526 22534 ft 350 kts 337°
2026-05-06 17:27 55.74854 36.94868 23054 ft 353 kts 337°
2026-05-06 17:27 55.77128 36.93154 23553 ft 356 kts 336°
2026-05-06 17:27 55.79403 36.91406 24037 ft 358 kts 336°
2026-05-06 17:28 55.81643 36.89448 24501 ft 361 kts 328°
2026-05-06 17:28 55.83701 36.86769 24717 ft 372 kts 320°
2026-05-06 17:28 55.85730 36.83786 24847 ft 384 kts 320°
2026-05-06 17:28 55.87812 36.80735 25143 ft 391 kts 320°
2026-05-06 17:29 55.89924 36.77649 25556 ft 394 kts 320°
2026-05-06 17:29 55.92061 36.74544 25954 ft 397 kts 321°
2026-05-06 17:29 55.94235 36.71480 26360 ft 400 kts 322°
2026-05-06 17:29 55.96422 36.68470 26755 ft 402 kts 322°
2026-05-06 17:30 55.98646 36.65440 27143 ft 405 kts 322°
2026-05-06 17:30 56.00899 36.62364 27525 ft 407 kts 322°
2026-05-06 17:30 56.03147 36.59272 27899 ft 410 kts 322°
2026-05-06 17:30 56.05394 36.56109 28257 ft 412 kts 318°
2026-05-06 17:31 56.07386 36.52398 28605 ft 414 kts 308°
2026-05-06 17:31 56.08975 36.48086 28884 ft 418 kts 297°
2026-05-06 17:31 56.10126 36.43253 29010 ft 426 kts 287°
2026-05-06 17:31 56.10940 36.38102 29139 ft 433 kts 285°
2026-05-06 17:32 56.11756 36.32859 29265 ft 440 kts 285°
2026-05-06 17:32 56.12585 36.27541 29391 ft 447 kts 285°
2026-05-06 17:32 56.13419 36.22151 29530 ft 452 kts 285°
2026-05-06 17:32 56.14264 36.16686 29763 ft 455 kts 285°
2026-05-06 17:33 56.15264 36.11290 30025 ft 457 kts 292°
2026-05-06 17:33 56.16623 36.06119 30275 ft 459 kts 296°
2026-05-06 17:33 56.18017 36.00956 30582 ft 460 kts 295°
2026-05-06 17:33 56.19474 35.95857 30958 ft 458 kts 301°
2026-05-06 17:34 56.21309 35.91174 31320 ft 458 kts 310°
2026-05-06 17:34 56.23498 35.87130 31653 ft 457 kts 319°
2026-05-06 17:34 56.26010 35.83649 32005 ft 456 kts 323°
2026-05-06 17:34 56.28540 35.80310 32158 ft 442 kts 323°
2026-05-06 17:35 56.30953 35.77103 32269 ft 422 kts 323°
2026-05-06 17:35 56.33257 35.74016 32389 ft 402 kts 323°
2026-05-06 17:35 56.35446 35.71074 32508 ft 384 kts 323°
2026-05-06 17:36 56.39525 35.65592 32745 ft 347 kts 323°
2026-05-06 17:36 56.41406 35.63068 32861 ft 328 kts 323°
2026-05-06 17:36 56.43189 35.60673 32971 ft 309 kts 323°
2026-05-06 17:36 56.44866 35.58418 32972 ft 295 kts 323°
2026-05-06 17:37 56.46512 35.56199 32484 ft 299 kts 323°
2026-05-06 17:37 56.48210 35.53905 31754 ft 310 kts 323°
2026-05-06 17:37 56.49934 35.51570 31406 ft 307 kts 323°
2026-05-06 17:37 56.51604 35.49306 31354 ft 293 kts 323°
2026-05-06 17:38 56.53218 35.47112 31080 ft 290 kts 323°
2026-05-06 17:38 56.54848 35.44893 30484 ft 297 kts 322°
2026-05-06 17:38 56.56510 35.42623 30035 ft 299 kts 322°
2026-05-06 17:38 56.58143 35.40389 29854 ft 290 kts 322°
2026-05-06 17:39 56.59731 35.38212 29639 ft 283 kts 322°
2026-05-06 17:39 56.61310 35.36044 29168 ft 287 kts 322°
2026-05-06 17:39 56.62913 35.33837 28709 ft 289 kts 322°
2026-05-06 17:39 56.64504 35.31643 28447 ft 284 kts 322°
2026-05-06 17:40 56.66038 35.29521 28223 ft 278 kts 322°
2026-05-06 17:40 56.67578 35.27389 27836 ft 279 kts 322°
2026-05-06 17:40 56.69125 35.25240 27403 ft 281 kts 322°
2026-05-06 17:40 56.70672 35.23087 27096 ft 278 kts 322°
2026-05-06 17:41 56.72189 35.20972 26856 ft 273 kts 322°
2026-05-06 17:41 56.73689 35.18875 26500 ft 272 kts 322°
2026-05-06 17:41 56.75194 35.16767 26103 ft 273 kts 322°
2026-05-06 17:41 56.76696 35.14659 25788 ft 271 kts 322°
2026-05-06 17:42 56.78175 35.12577 25517 ft 267 kts 322°
2026-05-06 17:42 56.79644 35.10506 25179 ft 266 kts 322°
2026-05-06 17:42 56.81106 35.08439 24811 ft 266 kts 322°
2026-05-06 17:42 56.82566 35.06371 24499 ft 264 kts 322°
2026-05-06 17:43 56.84013 35.04316 24203 ft 261 kts 322°
2026-05-06 17:43 56.85444 35.02280 23878 ft 260 kts 322°
2026-05-06 17:43 56.86871 35.00245 23519 ft 260 kts 321°
2026-05-06 17:43 56.88293 34.98212 23221 ft 258 kts 321°
2026-05-06 17:44 56.89701 34.96195 22931 ft 256 kts 321°
2026-05-06 17:44 56.91098 34.94188 22609 ft 255 kts 321°
2026-05-06 17:44 56.92494 34.92180 22286 ft 254 kts 321°
2026-05-06 17:44 56.93881 34.90179 21988 ft 253 kts 321°
2026-05-06 17:45 56.95237 34.88218 21698 ft 251 kts 321°
2026-05-06 17:45 56.96618 34.86216 21390 ft 250 kts 321°
2026-05-06 17:45 56.97961 34.84265 21088 ft 249 kts 321°
2026-05-06 17:45 56.99332 34.82268 20793 ft 247 kts 321°
2026-05-06 17:46 57.00657 34.80336 20515 ft 246 kts 321°
2026-05-06 17:46 57.01992 34.78382 20215 ft 245 kts 321°
2026-05-06 17:46 57.03320 34.76436 19924 ft 244 kts 321°
2026-05-06 17:46 57.04640 34.74496 19649 ft 242 kts 321°
2026-05-06 17:47 57.05953 34.72562 19367 ft 241 kts 321°
2026-05-06 17:47 57.07258 34.70634 19068 ft 240 kts 321°
2026-05-06 17:47 57.08558 34.68712 18801 ft 239 kts 321°
2026-05-06 17:47 57.09846 34.66801 18525 ft 238 kts 321°
2026-05-06 17:48 57.11131 34.64890 18246 ft 237 kts 321°
2026-05-06 17:48 57.12407 34.62989 17966 ft 236 kts 320°
2026-05-06 17:48 57.13678 34.61090 17695 ft 234 kts 320°
2026-05-06 17:48 57.14943 34.59196 17426 ft 233 kts 320°
2026-05-06 17:49 57.16197 34.57314 17155 ft 232 kts 320°
2026-05-06 17:49 57.17448 34.55432 16885 ft 231 kts 320°
2026-05-06 17:49 57.18687 34.53563 16601 ft 230 kts 320°
2026-05-06 17:49 57.19925 34.51692 16338 ft 229 kts 320°
2026-05-06 17:50 57.21138 34.49854 16073 ft 228 kts 320°
2026-05-06 17:50 57.22361 34.47996 15806 ft 227 kts 320°
2026-05-06 17:50 57.23576 34.46147 15534 ft 226 kts 320°
2026-05-06 17:50 57.24788 34.44297 15267 ft 225 kts 320°
2026-05-06 17:51 57.25992 34.42454 15002 ft 224 kts 320°
2026-05-06 17:51 57.27191 34.40617 14730 ft 223 kts 320°
2026-05-06 17:51 57.28383 34.38785 14454 ft 223 kts 320°
2026-05-06 17:51 57.29570 34.36956 14184 ft 221 kts 320°
2026-05-06 17:52 57.30750 34.35133 13917 ft 220 kts 320°
2026-05-06 17:52 57.31923 34.33317 13642 ft 219 kts 320°
2026-05-06 17:52 57.33088 34.31509 13366 ft 218 kts 319°
2026-05-06 17:52 57.34252 34.29699 13086 ft 217 kts 319°
2026-05-06 17:53 57.35403 34.27905 12812 ft 216 kts 319°
2026-05-06 17:53 57.36554 34.26105 12536 ft 216 kts 319°
2026-05-06 17:53 57.37696 34.24315 12245 ft 215 kts 319°
2026-05-06 17:53 57.38831 34.22532 11969 ft 213 kts 319°
2026-05-06 17:54 57.39961 34.20753 11688 ft 212 kts 319°
2026-05-06 17:54 57.41083 34.18981 11416 ft 212 kts 319°
2026-05-06 17:54 57.42200 34.17212 11140 ft 211 kts 319°
2026-05-06 17:54 57.43312 34.15448 10865 ft 210 kts 319°
2026-05-06 17:55 57.44412 34.13698 10566 ft 209 kts 319°
2026-05-06 17:55 57.45513 34.11943 10293 ft 208 kts 319°
2026-05-06 17:55 57.46608 34.10192 10024 ft 207 kts 319°
2026-05-06 17:55 57.47693 34.08452 9746 ft 206 kts 319°
2026-05-06 17:56 57.48775 34.06714 9473 ft 205 kts 319°
2026-05-06 17:56 57.49852 34.04981 9197 ft 204 kts 319°
2026-05-06 17:56 57.50920 34.03256 8922 ft 203 kts 319°
2026-05-06 17:56 57.51971 34.01554 8650 ft 202 kts 318°
2026-05-06 17:57 57.53031 33.99834 8381 ft 201 kts 318°
2026-05-06 17:57 57.54082 33.98125 8106 ft 201 kts 318°
2026-05-06 17:57 57.55131 33.96413 7831 ft 200 kts 318°
2026-05-06 17:57 57.56171 33.94712 7567 ft 199 kts 318°
2026-05-06 17:58 57.57207 33.93013 7298 ft 199 kts 318°
2026-05-06 17:58 57.58296 33.91216 7335 ft 224 kts 318°